Weather History for KHIF - June, 2013

Change the Weather History Date:

Friday, June 14, 2013

  Actual Average Record
Temperature  
Mean Temperature 59 °F -  
Max Temperature 70 °F 74 °F 89 °F (2002)
Min Temperature 49 °F 53 °F 42 °F (2001)
Degree Days  
Heating Degree Days 6    
Growing Degree Days 9 (Base 50)    
Moisture  
Dew Point 30 °F    
Average Humidity 35    
Maximum Humidity 60    
Minimum Humidity 18    
Precipitation  
Precipitation 0.00 in - - ()
Sea Level Pressure  
Sea Level Pressure 30.01 in    
Wind  
Wind Speed 7 mph (North)    
Max Wind Speed 13 mph    
Max Gust Speed 22 mph    
Visibility 10 miles    
Events      
Averages and records for this station are not official NWS values.
T = Trace of Precipitation, MM = Missing Value Source: NWS Daily Summary

Daily Weather History Graph

Daily Weather History Graph

Search for Another Location

Airport or City:

Trip Planner

Search our weather history database for the weather conditions in past years. The results will help you decide how hot, cold, wet, or windy it might be!

Date:

Astronomy

Jun. 14, 2013 Rise Set
Actual Time 5:54 AM MDT 9:01 PM MDT
Civil Twilight 5:21 AM MDT 9:35 PM MDT
Nautical Twilight 4:38 AM MDT 10:18 PM MDT
Astronomical Twilight 3:46 AM MDT 11:09 PM MDT
Moon 11:36 AM MDT (6/14) 12:07 AM MDT (6/14)
Length of Visible Light 16h 14m
Length of Day
15h 07m
Waxing Crescent, 31% of the Moon is Illuminated
Jun 14
Waxing Crescent
Jun 16
First Quarter
Jun 23
Full
Jun 29
Last Quarter
Jul 8
New

Hourly Weather History & Observations

Time (MDT) Temp. Dew Point Humidity Pressure Visibility Wind Dir Wind Speed Gust Speed Precip Events Conditions
12:58 AM 61.0 °F 38.8 °F 44% 29.90 in 10.0 mi North 4.6 mph - N/A   Clear
1:58 AM 58.6 °F 36.3 °F 43% 29.92 in 10.0 mi NNW 12.7 mph - N/A   Clear
2:58 AM 55.9 °F 34.5 °F 45% 29.94 in 10.0 mi North 12.7 mph - N/A   Clear
3:58 AM 53.8 °F 34.7 °F 48% 29.94 in 10.0 mi North 8.1 mph - N/A   Clear
4:58 AM 52.3 °F 35.1 °F 52% 29.98 in 10.0 mi North 9.2 mph - N/A   Clear
5:58 AM 50.0 °F 35.2 °F 57% 30.02 in 10.0 mi North 5.8 mph - N/A   Clear
6:58 AM 49.5 °F 36.0 °F 60% 30.05 in 10.0 mi ENE 3.5 mph - N/A   Clear
7:58 AM 53.2 °F 36.5 °F 53% 30.06 in 10.0 mi SSE 3.5 mph - N/A   Clear
8:58 AM 55.9 °F 36.5 °F 48% 30.08 in 10.0 mi NNW 8.1 mph - N/A   Clear
9:58 AM 57.2 °F 33.4 °F 41% 30.09 in 10.0 mi West 4.6 mph - N/A   Clear
10:58 AM 59.7 °F 33.6 °F 37% 30.08 in 10.0 mi Variable 3.5 mph - N/A   Partly Cloudy
11:58 AM 61.7 °F 30.4 °F 31% 30.08 in 10.0 mi Variable 5.8 mph - N/A   Clear
12:58 PM 64.2 °F 28.4 °F 26% 30.07 in 10.0 mi NNW 4.6 mph - N/A   Partly Cloudy
1:58 PM 64.9 °F 28.0 °F 25% 30.05 in 10.0 mi NNW 11.5 mph - N/A   Partly Cloudy
2:58 PM 67.1 °F 28.6 °F 24% 30.05 in 10.0 mi North 8.1 mph - N/A   Partly Cloudy
3:58 PM 68.5 °F 27.1 °F 21% 30.03 in 10.0 mi NW 8.1 mph - N/A   Clear
4:58 PM 69.8 °F 25.7 °F 19% 30.01 in 10.0 mi Variable 6.9 mph - N/A   Clear
5:58 PM 69.4 °F 23.4 °F 18% 29.99 in 10.0 mi NNW 9.2 mph - N/A   Clear
6:58 PM 67.6 °F 25.2 °F 20% 29.99 in 10.0 mi NNW 8.1 mph - N/A   Clear
7:58 PM 67.1 °F 22.3 °F 18% 29.99 in 10.0 mi North 6.9 mph - N/A   Clear
8:58 PM 63.1 °F 25.2 °F 24% 29.98 in 10.0 mi NNE 3.5 mph - N/A   Clear
9:58 PM 59.2 °F 25.5 °F 28% 29.98 in 10.0 mi Variable 5.8 mph - N/A   Clear
10:58 PM 60.3 °F 24.3 °F 25% 29.98 in 10.0 mi ENE 5.8 mph - N/A   Clear
11:58 PM 59.0 °F 25.5 °F 28% 29.96 in 10.0 mi ENE 12.7 mph 21.9 mph N/A   Clear